TimeMST,TemperatureF,Dew PointF,Humidity,Sea Level PressureIn,VisibilityMPH,Wind Direction,Wind SpeedMPH,Gust SpeedMPH,PrecipitationIn,Events,Conditions,WindDirDegrees,DateUTC
12:15 AM,30.2,26.6,86,29.96,10.0,South,5.8,-,N/A,,Overcast,170,2012-11-25 07:15:00
12:35 AM,32.0,28.4,87,29.96,10.0,SSW,4.6,-,N/A,,Overcast,200,2012-11-25 07:35:00
12:55 AM,32.0,28.4,87,29.94,10.0,South,3.5,-,N/A,,Overcast,180,2012-11-25 07:55:00
1:15 AM,32.0,28.4,87,29.94,10.0,Calm,Calm,-,N/A,,Overcast,0,2012-11-25 08:15:00
1:35 AM,32.0,28.4,87,29.92,10.0,ESE,5.8,-,N/A,,Overcast,110,2012-11-25 08:35:00
1:55 AM,32.0,28.4,87,29.92,10.0,SE,5.8,-,N/A,,Mostly Cloudy,140,2012-11-25 08:55:00
2:15 AM,32.0,28.4,87,29.92,10.0,ESE,3.5,-,N/A,,Scattered Clouds,120,2012-11-25 09:15:00
2:35 AM,32.0,26.6,80,29.92,10.0,SSE,4.6,-,N/A,,Scattered Clouds,160,2012-11-25 09:35:00
2:55 AM,30.2,26.6,86,29.91,10.0,Calm,Calm,-,N/A,,Clear,0,2012-11-25 09:55:00
3:15 AM,32.0,26.6,80,29.90,10.0,Calm,Calm,-,N/A,,Clear,0,2012-11-25 10:15:00
3:35 AM,30.2,26.6,86,29.90,10.0,SE,3.5,-,N/A,,Clear,130,2012-11-25 10:35:00
3:55 AM,30.2,26.6,86,29.88,10.0,Calm,Calm,-,N/A,,Clear,0,2012-11-25 10:55:00
4:15 AM,30.2,26.6,86,29.87,10.0,Calm,Calm,-,N/A,,Clear,0,2012-11-25 11:15:00
4:35 AM,32.0,26.6,80,29.87,10.0,Calm,Calm,-,N/A,,Clear,0,2012-11-25 11:35:00
4:55 AM,32.0,24.8,75,29.85,10.0,West,10.4,-,N/A,,Clear,260,2012-11-25 11:55:00
5:15 AM,32.0,23.0,69,29.84,10.0,West,13.8,19.6,N/A,,Clear,260,2012-11-25 12:15:00
5:35 AM,32.0,23.0,69,29.84,10.0,West,15.0,20.7,N/A,,Clear,260,2012-11-25 12:35:00
5:55 AM,32.0,21.2,64,29.83,10.0,West,11.5,23.0,N/A,,Clear,260,2012-11-25 12:55:00
6:15 AM,32.0,19.4,60,29.83,10.0,West,15.0,21.9,N/A,,Clear,260,2012-11-25 13:15:00
6:35 AM,32.0,19.4,60,29.82,10.0,West,18.4,24.2,N/A,,Clear,260,2012-11-25 13:35:00
6:55 AM,32.0,17.6,55,29.81,10.0,West,17.3,28.8,N/A,,Clear,260,2012-11-25 13:55:00
7:15 AM,32.0,15.8,51,29.81,10.0,West,21.9,29.9,N/A,,Clear,260,2012-11-25 14:15:00
7:35 AM,33.8,15.8,48,29.81,10.0,West,18.4,26.5,N/A,,Clear,260,2012-11-25 14:35:00
8:15 AM,32.0,15.8,51,29.80,10.0,WSW,24.2,32.2,N/A,,Scattered Clouds,250,2012-11-25 15:15:00
8:35 AM,33.8,14.0,44,29.80,10.0,West,23.0,34.5,N/A,,Scattered Clouds,260,2012-11-25 15:35:00
9:15 AM,33.8,19.4,56,29.79,10.0,West,23.0,36.8,N/A,,Clear,260,2012-11-25 16:15:00
9:35 AM,32.0,23.0,69,29.79,10.0,West,26.5,39.1,N/A,,Scattered Clouds,260,2012-11-25 16:35:00
9:55 AM,32.0,24.8,75,29.80,10.0,West,21.9,35.7,N/A,,Scattered Clouds,260,2012-11-25 16:55:00
10:15 AM,32.0,26.6,80,29.81,10.0,West,18.4,28.8,N/A,,Clear,260,2012-11-25 17:15:00
10:35 AM,33.8,26.6,75,29.82,10.0,West,18.4,25.3,N/A,,Clear,270,2012-11-25 17:35:00
10:55 AM,32.0,28.4,87,29.83,10.0,West,17.3,26.5,N/A,,Clear,260,2012-11-25 17:55:00
11:15 AM,32.0,28.4,87,29.83,10.0,NW,6.9,18.4,N/A,,Scattered Clouds,320,2012-11-25 18:15:00
11:35 AM,33.8,26.6,75,29.84,10.0,NW,5.8,-,N/A,,Mostly Cloudy,320,2012-11-25 18:35:00
11:55 AM,33.8,26.6,75,29.83,10.0,WNW,8.1,-,N/A,,Overcast,290,2012-11-25 18:55:00
12:15 PM,33.8,26.6,75,29.83,10.0,WNW,12.7,20.7,N/A,,Overcast,300,2012-11-25 19:15:00
12:35 PM,33.8,26.6,75,29.83,10.0,WNW,9.2,-,N/A,,Overcast,290,2012-11-25 19:35:00
1:15 PM,35.6,26.6,70,29.82,10.0,West,16.1,26.5,N/A,,Overcast,280,2012-11-25 20:15:00
1:35 PM,35.6,24.8,65,29.83,10.0,West,13.8,21.9,N/A,,Overcast,260,2012-11-25 20:35:00
1:55 PM,35.6,23.0,60,29.82,10.0,West,13.8,18.4,N/A,,Mostly Cloudy,270,2012-11-25 20:55:00
2:15 PM,33.8,23.0,65,29.82,10.0,West,17.3,32.2,N/A,,Scattered Clouds,280,2012-11-25 21:15:00
2:35 PM,33.8,24.8,70,29.83,10.0,West,12.7,25.3,N/A,,Clear,270,2012-11-25 21:35:00
2:55 PM,33.8,26.6,75,29.84,10.0,West,12.7,23.0,N/A,,Clear,260,2012-11-25 21:55:00
3:15 PM,33.8,26.6,75,29.84,10.0,West,13.8,19.6,N/A,,Clear,260,2012-11-25 22:15:00
3:55 PM,33.8,23.0,65,29.85,10.0,West,11.5,18.4,N/A,,Clear,270,2012-11-25 22:55:00
4:15 PM,33.8,23.0,65,29.85,10.0,West,8.1,-,N/A,,Clear,270,2012-11-25 23:15:00
4:35 PM,32.0,21.2,64,29.86,10.0,West,6.9,-,N/A,,Clear,260,2012-11-25 23:35:00
4:55 PM,32.0,21.2,64,29.86,10.0,West,11.5,16.1,N/A,,Clear,260,2012-11-25 23:55:00
5:15 PM,32.0,19.4,60,29.86,10.0,West,10.4,-,N/A,,Clear,270,2012-11-26 00:15:00
5:35 PM,32.0,15.8,51,29.86,10.0,West,12.7,20.7,N/A,,Clear,270,2012-11-26 00:35:00
5:55 PM,32.0,14.0,48,29.87,10.0,West,10.4,-,N/A,,Clear,270,2012-11-26 00:55:00
6:15 PM,32.0,12.2,44,29.87,10.0,West,15.0,21.9,N/A,,Clear,260,2012-11-26 01:15:00
6:35 PM,32.0,15.8,51,29.87,10.0,WSW,12.7,21.9,N/A,,Clear,250,2012-11-26 01:35:00
6:55 PM,32.0,17.6,55,29.88,10.0,West,11.5,17.3,N/A,,Clear,260,2012-11-26 01:55:00
7:15 PM,30.2,17.6,60,29.88,10.0,West,11.5,17.3,N/A,,Clear,260,2012-11-26 02:15:00
7:35 PM,32.0,15.8,51,29.89,10.0,WNW,9.2,-,N/A,,Clear,290,2012-11-26 02:35:00
7:55 PM,26.6,23.0,86,29.91,10.0,North,6.9,-,N/A,,Clear,360,2012-11-26 02:55:00
8:15 PM,26.6,24.8,93,29.92,10.0,North,6.9,-,N/A,,Mostly Cloudy,10,2012-11-26 03:15:00
8:35 PM,26.6,24.8,93,29.92,10.0,North,8.1,-,N/A,,Overcast,350,2012-11-26 03:35:00
8:55 PM,26.6,23.0,86,-9999,10.0,North,9.2,-,N/A,,Overcast,350,2012-11-26 03:55:00
9:15 PM,26.6,24.8,93,-9999,10.0,North,9.2,-,N/A,,Overcast,350,2012-11-26 04:15:00
9:35 PM,24.8,23.0,93,-9999,10.0,North,6.9,-,N/A,,Overcast,10,2012-11-26 04:35:00
9:55 PM,23.0,23.0,100,-9999,7.0,North,9.2,-,N/A,,Overcast,360,2012-11-26 04:55:00
10:15 PM,23.0,23.0,100,-9999,10.0,North,11.5,-,N/A,,Overcast,350,2012-11-26 05:15:00
10:35 PM,23.0,23.0,100,-9999,10.0,North,10.4,-,N/A,,Overcast,350,2012-11-26 05:35:00
11:15 PM,23.0,23.0,100,-9999,7.0,North,11.5,16.1,N/A,,Overcast,360,2012-11-26 06:15:00
11:35 PM,23.0,23.0,100,-9999,1.2,NNW,13.8,-,N/A,,Overcast,340,2012-11-26 06:35:00
11:55 PM,23.0,23.0,100,-9999,0.2,North,10.4,-,N/A,Snow,Light Snow,10,2012-11-26 06:55:00